Time,TemperatureF,DewpointF,PressureIn,WindDirection,WindDirectionDegrees,WindSpeedMPH,WindSpeedGustMPH,Humidity,HourlyPrecipIn,Conditions,Clouds,dailyrainin,SolarRadiationWatts/m^2,SoftwareType,DateUTC
2013-10-03 00:00:00,57.2,43.4,29.93,South,180,0.0,-999.0,60,0.00,,,0.00,0,WeatherHawk,2013-10-03 05:00:00,
2013-10-03 00:10:00,58.4,42.8,29.93,SE,135,4.0,-999.0,56,0.00,,,0.00,0,WeatherHawk,2013-10-03 05:10:00,
2013-10-03 00:20:00,58.1,42.5,29.92,SSE,164,3.0,-999.0,56,0.00,,,0.00,0,WeatherHawk,2013-10-03 05:20:00,
2013-10-03 00:25:00,58.2,42.1,29.92,SE,139,1.0,-999.0,55,0.00,,,0.00,0,WeatherHawk,2013-10-03 05:25:00,
2013-10-03 00:30:00,58.5,41.9,29.92,SE,124,4.0,-999.0,54,0.00,,,0.00,0,WeatherHawk,2013-10-03 05:30:00,
2013-10-03 00:40:00,58.3,42.2,29.91,SE,128,3.0,-999.0,55,0.00,,,0.00,0,WeatherHawk,2013-10-03 05:40:00,
2013-10-03 00:45:00,57.5,41.9,29.91,SSE,151,1.0,-999.0,56,0.00,,,0.00,0,WeatherHawk,2013-10-03 05:45:00,
2013-10-03 00:50:00,57.8,41.8,29.92,SSE,149,1.0,-999.0,55,0.00,,,0.00,0,WeatherHawk,2013-10-03 05:50:00,
2013-10-03 00:55:00,57.4,41.8,29.91,SSE,152,2.0,-999.0,56,0.00,,,0.00,0,WeatherHawk,2013-10-03 05:55:00,
2013-10-03 01:00:00,57.8,42.2,29.91,SSE,149,2.0,-999.0,56,0.00,,,0.00,0,WeatherHawk,2013-10-03 06:00:00,
2013-10-03 01:05:00,57.2,42.5,29.91,SSE,147,3.0,-999.0,58,0.00,,,0.00,0,WeatherHawk,2013-10-03 06:05:00,
2013-10-03 01:10:00,56.2,42.5,29.91,South,180,0.0,-999.0,60,0.00,,,0.00,0,WeatherHawk,2013-10-03 06:10:00,
2013-10-03 01:20:00,56.6,42.8,29.91,SSE,158,0.0,-999.0,60,0.00,,,0.00,0,WeatherHawk,2013-10-03 06:20:00,
2013-10-03 01:25:00,57.0,43.2,29.91,SSE,149,2.0,-999.0,60,0.00,,,0.00,0,WeatherHawk,2013-10-03 06:25:00,
2013-10-03 01:30:00,57.4,44.0,29.90,South,186,3.0,-999.0,61,0.00,,,0.00,0,WeatherHawk,2013-10-03 06:30:00,
2013-10-03 01:35:00,57.0,44.1,29.91,South,169,2.0,-999.0,62,0.00,,,0.00,0,WeatherHawk,2013-10-03 06:35:00,
2013-10-03 01:45:00,57.7,44.8,29.90,SSE,148,4.0,-999.0,62,0.00,,,0.00,0,WeatherHawk,2013-10-03 06:45:00,
2013-10-03 01:55:00,56.9,44.8,29.91,SE,145,0.0,-999.0,64,0.00,,,0.00,0,WeatherHawk,2013-10-03 06:55:00,
2013-10-03 02:00:00,56.3,44.7,29.91,SSE,151,2.0,-999.0,65,0.00,,,0.00,0,WeatherHawk,2013-10-03 07:00:00,
2013-10-03 02:05:00,56.5,44.9,29.90,SE,139,2.0,-999.0,65,0.00,,,0.00,0,WeatherHawk,2013-10-03 07:05:00,
2013-10-03 02:10:00,56.4,44.8,29.91,SSE,154,1.0,-999.0,65,0.00,,,0.00,0,WeatherHawk,2013-10-03 07:10:00,
2013-10-03 02:15:00,56.3,45.0,29.91,SSE,148,0.0,-999.0,66,0.00,,,0.00,0,WeatherHawk,2013-10-03 07:15:00,
2013-10-03 02:25:00,56.5,46.0,29.90,SE,130,2.0,-999.0,68,0.00,,,0.00,0,WeatherHawk,2013-10-03 07:25:00,
2013-10-03 02:30:00,55.7,45.7,29.90,South,174,0.0,-999.0,69,0.00,,,0.00,0,WeatherHawk,2013-10-03 07:30:00,
2013-10-03 02:35:00,56.7,47.0,29.91,SE,139,1.0,-999.0,70,0.00,,,0.00,0,WeatherHawk,2013-10-03 07:35:00,
2013-10-03 02:40:00,56.5,46.8,29.90,ESE,115,0.0,-999.0,70,0.00,,,0.00,0,WeatherHawk,2013-10-03 07:40:00,
2013-10-03 02:50:00,57.0,48.1,29.90,SE,131,0.0,-999.0,72,0.00,,,0.00,0,WeatherHawk,2013-10-03 07:50:00,
2013-10-03 02:55:00,55.7,47.6,29.90,ESE,119,0.0,-999.0,74,0.00,,,0.00,0,WeatherHawk,2013-10-03 07:55:00,
2013-10-03 03:00:00,56.3,48.4,29.90,ESE,120,0.0,-999.0,75,0.00,,,0.00,0,WeatherHawk,2013-10-03 08:00:00,
2013-10-03 03:10:00,56.2,48.4,29.90,South,180,0.0,-999.0,75,0.00,,,0.00,0,WeatherHawk,2013-10-03 08:10:00,
2013-10-03 03:20:00,56.3,48.8,29.90,SSE,163,0.0,-999.0,76,0.00,,,0.00,0,WeatherHawk,2013-10-03 08:20:00,
2013-10-03 03:25:00,56.7,49.2,29.90,SE,134,1.0,-999.0,76,0.00,,,0.00,0,WeatherHawk,2013-10-03 08:25:00,
2013-10-03 03:30:00,56.8,48.9,29.90,SE,135,2.0,-999.0,75,0.00,,,0.00,0,WeatherHawk,2013-10-03 08:30:00,
2013-10-03 03:40:00,57.1,49.9,29.89,SE,145,0.0,-999.0,77,0.00,,,0.00,0,WeatherHawk,2013-10-03 08:40:00,
2013-10-03 03:45:00,56.7,49.6,29.89,ESE,122,0.0,-999.0,77,0.00,,,0.00,0,WeatherHawk,2013-10-03 08:45:00,
2013-10-03 03:50:00,56.7,50.0,29.89,SE,143,1.0,-999.0,78,0.00,,,0.00,0,WeatherHawk,2013-10-03 08:50:00,
2013-10-03 03:55:00,56.9,50.1,29.89,South,191,1.0,-999.0,78,0.00,,,0.00,0,WeatherHawk,2013-10-03 08:55:00,
2013-10-03 04:05:00,57.0,50.5,29.89,SSE,153,0.0,-999.0,79,0.00,,,0.00,0,WeatherHawk,2013-10-03 09:05:00,
2013-10-03 04:10:00,57.0,50.9,29.89,SE,136,0.0,-999.0,80,0.00,,,0.00,0,WeatherHawk,2013-10-03 09:10:00,
2013-10-03 04:15:00,57.1,51.3,29.89,SE,139,0.0,-999.0,81,0.00,,,0.00,0,WeatherHawk,2013-10-03 09:15:00,
2013-10-03 04:20:00,57.2,51.7,29.88,SE,139,0.0,-999.0,82,0.00,,,0.00,0,WeatherHawk,2013-10-03 09:20:00,
2013-10-03 04:25:00,57.3,51.9,29.89,SE,138,0.0,-999.0,82,0.00,,,0.00,0,WeatherHawk,2013-10-03 09:25:00,
2013-10-03 04:30:00,57.4,52.6,29.89,SE,145,0.0,-999.0,84,0.00,,,0.00,0,WeatherHawk,2013-10-03 09:30:00,
2013-10-03 04:35:00,57.6,52.8,29.89,SE,139,0.0,-999.0,84,0.00,,,0.00,0,WeatherHawk,2013-10-03 09:35:00,
2013-10-03 04:45:00,58.1,53.7,29.89,ESE,123,0.0,-999.0,85,0.00,,,0.00,0,WeatherHawk,2013-10-03 09:45:00,
2013-10-03 04:55:00,58.4,54.2,29.89,SE,124,0.0,-999.0,86,0.00,,,0.00,0,WeatherHawk,2013-10-03 09:55:00,
2013-10-03 05:00:00,58.2,54.1,29.89,SE,124,0.0,-999.0,86,0.00,,,0.00,0,WeatherHawk,2013-10-03 10:00:00,
2013-10-03 05:10:00,58.5,55.2,29.89,SE,124,0.0,-999.0,89,0.00,,,0.00,0,WeatherHawk,2013-10-03 10:10:00,
2013-10-03 05:20:00,58.4,56.7,29.88,South,179,0.0,-999.0,94,0.00,,,0.00,0,WeatherHawk,2013-10-03 10:20:00,
2013-10-03 05:25:00,58.9,58.0,29.89,SSE,153,0.0,-999.0,97,0.00,,,0.00,0,WeatherHawk,2013-10-03 10:25:00,
2013-10-03 05:30:00,58.2,57.9,29.88,SSE,153,0.0,-999.0,99,0.00,,,0.00,0,WeatherHawk,2013-10-03 10:30:00,
2013-10-03 05:40:00,57.9,57.9,29.89,SSE,153,1.0,-999.0,100,0.00,,,0.00,0,WeatherHawk,2013-10-03 10:40:00,
2013-10-03 05:45:00,58.3,56.6,29.90,NW,319,2.0,-999.0,94,0.00,,,0.00,0,WeatherHawk,2013-10-03 10:45:00,
2013-10-03 05:55:00,59.8,58.1,29.90,NW,315,7.0,-999.0,94,0.00,,,0.00,0,WeatherHawk,2013-10-03 10:55:00,
2013-10-03 06:05:00,59.3,57.0,29.91,NW,324,0.0,-999.0,92,0.00,,,0.00,0,WeatherHawk,2013-10-03 11:05:00,
2013-10-03 06:15:00,59.5,56.9,29.90,NW,325,0.0,-999.0,91,0.00,,,0.00,0,WeatherHawk,2013-10-03 11:15:00,
2013-10-03 06:20:00,59.4,56.7,29.90,NW,325,0.0,-999.0,91,0.00,,,0.00,0,WeatherHawk,2013-10-03 11:20:00,
2013-10-03 06:25:00,59.5,57.2,29.90,NW,325,0.0,-999.0,92,0.00,,,0.00,0,WeatherHawk,2013-10-03 11:25:00,
2013-10-03 06:35:00,59.7,57.3,29.90,SE,132,2.0,-999.0,92,0.00,,,0.00,0,WeatherHawk,2013-10-03 11:35:00,
2013-10-03 06:40:00,59.6,56.9,29.90,SE,133,0.0,-999.0,91,0.00,,,0.00,0,WeatherHawk,2013-10-03 11:40:00,
2013-10-03 06:45:00,59.4,57.1,29.90,SE,132,0.0,-999.0,92,0.00,,,0.00,0,WeatherHawk,2013-10-03 11:45:00,
2013-10-03 06:50:00,59.8,57.4,29.89,East,91,2.0,-999.0,92,0.00,,,0.00,0,WeatherHawk,2013-10-03 11:50:00,
2013-10-03 06:55:00,60.2,57.9,29.90,SSE,149,3.0,-999.0,92,0.00,,,0.00,2,WeatherHawk,2013-10-03 11:55:00,
2013-10-03 07:00:00,60.1,57.4,29.89,SSE,153,1.0,-999.0,91,0.00,,,0.00,4,WeatherHawk,2013-10-03 12:00:00,
2013-10-03 07:10:00,59.9,57.9,29.89,SE,146,0.0,-999.0,93,0.00,,,0.00,8,WeatherHawk,2013-10-03 12:10:00,
2013-10-03 07:20:00,60.0,58.0,29.89,SE,141,3.0,-999.0,93,0.00,,,0.00,16,WeatherHawk,2013-10-03 12:20:00,
2013-10-03 07:25:00,59.9,57.9,29.89,SE,128,0.0,-999.0,93,0.00,,,0.00,30,WeatherHawk,2013-10-03 12:25:00,
2013-10-03 07:35:00,59.9,57.9,29.89,SE,130,0.0,-999.0,93,0.00,,,0.00,34,WeatherHawk,2013-10-03 12:35:00,
2013-10-03 07:45:00,60.1,58.4,29.89,ESE,106,0.0,-999.0,94,0.00,,,0.00,26,WeatherHawk,2013-10-03 12:45:00,
2013-10-03 07:50:00,60.1,58.4,29.89,SSE,149,1.0,-999.0,94,0.00,,,0.00,27,WeatherHawk,2013-10-03 12:50:00,
2013-10-03 07:55:00,60.3,58.6,29.89,SSE,148,2.0,-999.0,94,0.00,,,0.00,37,WeatherHawk,2013-10-03 12:55:00,
2013-10-03 08:05:00,61.2,58.6,29.89,SSE,161,2.0,-999.0,91,0.00,,,0.00,81,WeatherHawk,2013-10-03 13:05:00,
2013-10-03 08:10:00,61.5,58.6,29.89,SSE,165,0.0,-999.0,90,0.00,,,0.00,111,WeatherHawk,2013-10-03 13:10:00,
2013-10-03 08:15:00,61.1,58.1,29.89,SSE,151,2.0,-999.0,90,0.00,,,0.00,66,WeatherHawk,2013-10-03 13:15:00,
2013-10-03 08:20:00,61.0,57.8,29.89,South,184,3.0,-999.0,89,0.00,,,0.00,59,WeatherHawk,2013-10-03 13:20:00,
2013-10-03 08:30:00,62.8,58.5,29.89,SE,136,2.0,-999.0,86,0.00,,,0.00,152,WeatherHawk,2013-10-03 13:30:00,
2013-10-03 08:40:00,63.9,58.6,29.89,SE,143,2.0,-999.0,83,0.00,,,0.00,196,WeatherHawk,2013-10-03 13:40:00,
2013-10-03 08:45:00,64.3,58.0,29.89,SE,145,3.0,-999.0,80,0.00,,,0.00,210,WeatherHawk,2013-10-03 13:45:00,
2013-10-03 08:50:00,64.9,57.8,29.89,ESE,106,2.0,-999.0,78,0.00,,,0.00,224,WeatherHawk,2013-10-03 13:50:00,
2013-10-03 08:55:00,66.3,59.2,29.89,South,191,2.0,-999.0,78,0.00,,,0.00,239,WeatherHawk,2013-10-03 13:55:00,
2013-10-03 09:00:00,66.2,58.4,29.88,South,172,3.0,-999.0,76,0.00,,,0.00,257,WeatherHawk,2013-10-03 14:00:00,
2013-10-03 09:10:00,68.0,59.4,29.89,SSE,153,3.0,-999.0,74,0.00,,,0.00,271,WeatherHawk,2013-10-03 14:10:00,
2013-10-03 09:15:00,68.2,59.2,29.88,South,188,5.0,-999.0,73,0.00,,,0.00,304,WeatherHawk,2013-10-03 14:15:00,
2013-10-03 09:20:00,69.1,60.0,29.88,SSE,152,4.0,-999.0,73,0.00,,,0.00,312,WeatherHawk,2013-10-03 14:20:00,
2013-10-03 09:25:00,70.2,61.1,29.88,South,170,2.0,-999.0,73,0.00,,,0.00,326,WeatherHawk,2013-10-03 14:25:00,
2013-10-03 09:35:00,69.8,59.9,29.88,SSW,195,4.0,-999.0,71,0.00,,,0.00,352,WeatherHawk,2013-10-03 14:35:00,
2013-10-03 09:40:00,68.9,59.5,29.88,SSW,204,8.0,-999.0,72,0.00,,,0.00,368,WeatherHawk,2013-10-03 14:40:00,
2013-10-03 09:45:00,71.4,61.5,29.88,South,183,4.0,-999.0,71,0.00,,,0.00,384,WeatherHawk,2013-10-03 14:45:00,
2013-10-03 09:50:00,71.3,60.6,29.88,South,186,2.0,-999.0,69,0.00,,,0.00,400,WeatherHawk,2013-10-03 14:50:00,
2013-10-03 09:55:00,70.4,59.0,29.88,South,179,6.0,-999.0,67,0.00,,,0.00,357,WeatherHawk,2013-10-03 14:55:00,
2013-10-03 10:05:00,68.9,58.3,29.89,South,172,8.0,-999.0,69,0.00,,,0.00,253,WeatherHawk,2013-10-03 15:05:00,
2013-10-03 10:15:00,70.8,62.1,29.89,South,172,2.0,-999.0,74,0.00,,,0.00,337,WeatherHawk,2013-10-03 15:15:00,
2013-10-03 10:20:00,70.4,61.7,29.89,SW,220,3.0,-999.0,74,0.00,,,0.00,327,WeatherHawk,2013-10-03 15:20:00,
2013-10-03 10:25:00,72.7,63.2,29.89,SW,228,2.0,-999.0,72,0.00,,,0.00,494,WeatherHawk,2013-10-03 15:25:00,
2013-10-03 10:35:00,69.1,60.8,29.89,SW,214,2.0,-999.0,75,0.00,,,0.00,158,WeatherHawk,2013-10-03 15:35:00,
2013-10-03 10:40:00,69.0,61.8,29.89,South,178,2.0,-999.0,78,0.00,,,0.00,157,WeatherHawk,2013-10-03 15:40:00,
2013-10-03 10:45:00,69.0,62.9,29.90,SSW,206,2.0,-999.0,81,0.00,,,0.00,167,WeatherHawk,2013-10-03 15:45:00,
2013-10-03 10:50:00,68.8,63.4,29.90,South,184,1.0,-999.0,83,0.00,,,0.00,226,WeatherHawk,2013-10-03 15:50:00,
2013-10-03 11:00:00,68.5,63.1,29.90,SE,142,4.0,-999.0,83,0.00,,,0.00,108,WeatherHawk,2013-10-03 16:00:00,
2013-10-03 11:10:00,68.5,64.1,29.89,SSE,160,1.0,-999.0,86,0.00,,,0.00,125,WeatherHawk,2013-10-03 16:10:00,
2013-10-03 11:20:00,68.3,64.2,29.89,SSW,192,3.0,-999.0,87,0.00,,,0.00,103,WeatherHawk,2013-10-03 16:20:00,
2013-10-03 11:25:00,68.5,64.4,29.89,SW,221,6.0,-999.0,87,0.00,,,0.00,134,WeatherHawk,2013-10-03 16:25:00,
2013-10-03 11:30:00,68.7,64.7,29.89,South,180,4.0,-999.0,87,0.00,,,0.00,150,WeatherHawk,2013-10-03 16:30:00,
2013-10-03 11:35:00,68.5,64.8,29.89,SSW,206,6.0,-999.0,88,0.00,,,0.00,155,WeatherHawk,2013-10-03 16:35:00,
2013-10-03 11:40:00,68.6,64.9,29.89,SSE,168,3.0,-999.0,88,0.00,,,0.00,160,WeatherHawk,2013-10-03 16:40:00,
2013-10-03 11:45:00,68.2,64.5,29.89,SSW,196,6.0,-999.0,88,0.00,,,0.00,93,WeatherHawk,2013-10-03 16:45:00,
2013-10-03 11:50:00,68.3,64.9,29.89,SSW,200,6.0,-999.0,89,0.00,,,0.00,85,WeatherHawk,2013-10-03 16:50:00,
2013-10-03 12:00:00,68.6,65.5,29.89,South,191,3.0,-999.0,90,0.00,,,0.00,159,WeatherHawk,2013-10-03 17:00:00,
2013-10-03 12:05:00,68.9,65.9,29.89,ESE,122,4.0,-999.0,90,0.00,,,0.00,186,WeatherHawk,2013-10-03 17:05:00,
2013-10-03 12:10:00,68.7,65.7,29.88,WSW,251,5.0,-999.0,90,0.00,,,0.00,164,WeatherHawk,2013-10-03 17:10:00,
2013-10-03 12:20:00,69.7,66.3,29.89,SSE,156,2.0,-999.0,89,0.00,,,0.00,169,WeatherHawk,2013-10-03 17:20:00,
2013-10-03 12:30:00,69.9,65.8,29.88,SSE,164,5.0,-999.0,87,0.00,,,0.00,245,WeatherHawk,2013-10-03 17:30:00,
2013-10-03 12:35:00,69.5,64.4,29.87,SE,139,7.0,-999.0,84,0.00,,,0.00,448,WeatherHawk,2013-10-03 17:35:00,
2013-10-03 12:40:00,71.3,65.5,29.88,SSE,152,5.0,-999.0,82,0.00,,,0.00,645,WeatherHawk,2013-10-03 17:40:00,
2013-10-03 12:45:00,70.9,64.4,29.88,SW,214,2.0,-999.0,80,0.00,,,0.00,201,WeatherHawk,2013-10-03 17:45:00,
2013-10-03 12:50:00,69.7,62.9,29.88,SE,142,5.0,-999.0,79,0.00,,,0.00,234,WeatherHawk,2013-10-03 17:50:00,
2013-10-03 13:00:00,70.2,63.0,29.87,SSW,209,1.0,-999.0,78,0.00,,,0.00,228,WeatherHawk,2013-10-03 18:00:00,
2013-10-03 13:05:00,70.1,62.9,29.87,South,187,4.0,-999.0,78,0.00,,,0.00,284,WeatherHawk,2013-10-03 18:05:00,
2013-10-03 13:10:00,71.3,63.4,29.87,SSE,165,5.0,-999.0,76,0.00,,,0.00,632,WeatherHawk,2013-10-03 18:10:00,
2013-10-03 13:15:00,70.9,61.8,29.86,SE,141,5.0,-999.0,73,0.00,,,0.00,324,WeatherHawk,2013-10-03 18:15:00,
2013-10-03 13:20:00,71.4,62.3,29.86,SSE,162,2.0,-999.0,73,0.00,,,0.00,260,WeatherHawk,2013-10-03 18:20:00,
2013-10-03 13:25:00,70.6,61.5,29.85,South,180,1.0,-999.0,73,0.00,,,0.00,264,WeatherHawk,2013-10-03 18:25:00,
2013-10-03 13:35:00,70.7,61.6,29.85,SSE,151,0.0,-999.0,73,0.00,,,0.00,314,WeatherHawk,2013-10-03 18:35:00,
2013-10-03 13:40:00,72.9,62.9,29.84,WSW,239,3.0,-999.0,71,0.00,,,0.00,762,WeatherHawk,2013-10-03 18:40:00,
2013-10-03 13:45:00,71.5,57.7,29.85,SSE,148,5.0,-999.0,62,0.00,,,0.00,481,WeatherHawk,2013-10-03 18:45:00,
2013-10-03 13:50:00,73.6,61.1,29.85,SW,218,1.0,-999.0,65,0.00,,,0.00,286,WeatherHawk,2013-10-03 18:50:00,
2013-10-03 14:00:00,73.7,59.4,29.84,SSW,199,0.0,-999.0,61,0.00,,,0.00,497,WeatherHawk,2013-10-03 19:00:00,
2013-10-03 14:05:00,75.0,58.3,29.84,SSW,194,2.0,-999.0,56,0.00,,,0.00,697,WeatherHawk,2013-10-03 19:05:00,
2013-10-03 14:14:00,75.6,56.7,29.84,SW,228,4.0,-999.0,52,0.00,,,0.00,676,WeatherHawk,2013-10-03 19:14:00,
2013-10-03 14:19:00,74.8,56.0,29.84,SSW,203,0.0,-999.0,52,0.00,,,0.00,409,WeatherHawk,2013-10-03 19:19:00,
2013-10-03 14:29:00,74.4,57.2,29.84,West,260,3.0,-999.0,55,0.00,,,0.00,196,WeatherHawk,2013-10-03 19:29:00,
2013-10-03 14:39:00,73.8,58.6,29.83,SW,218,5.0,-999.0,59,0.00,,,0.00,202,WeatherHawk,2013-10-03 19:39:00,
2013-10-03 14:44:00,73.8,60.0,29.83,WSW,258,2.0,-999.0,62,0.00,,,0.00,212,WeatherHawk,2013-10-03 19:44:00,
2013-10-03 14:49:00,74.5,60.6,29.84,South,176,4.0,-999.0,62,0.00,,,0.00,298,WeatherHawk,2013-10-03 19:49:00,
2013-10-03 14:54:00,75.4,62.3,29.84,SSW,203,0.0,-999.0,64,0.00,,,0.00,283,WeatherHawk,2013-10-03 19:54:00,
2013-10-03 14:59:00,75.2,60.4,29.85,South,187,7.0,-999.0,60,0.00,,,0.00,524,WeatherHawk,2013-10-03 19:59:00,
2013-10-03 15:09:00,74.7,58.9,29.84,South,176,7.0,-999.0,58,0.00,,,0.00,227,WeatherHawk,2013-10-03 20:09:00,
2013-10-03 15:14:00,73.8,59.9,29.84,South,182,5.0,-999.0,62,0.00,,,0.00,186,WeatherHawk,2013-10-03 20:14:00,
2013-10-03 15:19:00,74.2,61.6,29.84,SSW,207,4.0,-999.0,65,0.00,,,0.00,206,WeatherHawk,2013-10-03 20:19:00,
2013-10-03 15:29:00,73.3,62.5,29.83,South,185,0.0,-999.0,69,0.00,,,0.00,137,WeatherHawk,2013-10-03 20:29:00,
2013-10-03 15:34:00,72.7,62.7,29.83,SW,229,2.0,-999.0,71,0.00,,,0.00,101,WeatherHawk,2013-10-03 20:34:00,
2013-10-03 15:39:00,72.3,63.2,29.83,SW,215,3.0,-999.0,73,0.00,,,0.00,105,WeatherHawk,2013-10-03 20:39:00,
2013-10-03 15:44:00,71.7,62.9,29.84,SE,146,6.0,-999.0,74,0.00,,,0.00,48,WeatherHawk,2013-10-03 20:44:00,
2013-10-03 15:49:00,71.4,63.9,29.83,SSE,166,1.0,-999.0,77,0.00,,,0.00,84,WeatherHawk,2013-10-03 20:49:00,
2013-10-03 15:59:00,71.2,64.3,29.83,SSE,153,5.0,-999.0,79,0.00,,,0.00,78,WeatherHawk,2013-10-03 20:59:00,
2013-10-03 16:04:00,71.2,64.7,29.83,SSE,164,2.0,-999.0,80,0.00,,,0.00,71,WeatherHawk,2013-10-03 21:04:00,
2013-10-03 16:09:00,71.2,65.1,29.83,SSW,205,3.0,-999.0,81,0.00,,,0.00,81,WeatherHawk,2013-10-03 21:09:00,
2013-10-03 16:14:00,71.2,65.0,29.83,WSW,248,3.0,-999.0,81,0.00,,,0.00,74,WeatherHawk,2013-10-03 21:14:00,
2013-10-03 16:19:00,71.2,65.4,29.83,SSE,158,4.0,-999.0,82,0.00,,,0.00,89,WeatherHawk,2013-10-03 21:19:00,
2013-10-03 16:24:00,71.3,65.5,29.83,SSW,204,0.0,-999.0,82,0.00,,,0.00,74,WeatherHawk,2013-10-03 21:24:00,
2013-10-03 16:29:00,71.2,65.8,29.83,SSW,196,7.0,-999.0,83,0.00,,,0.00,78,WeatherHawk,2013-10-03 21:29:00,
2013-10-03 16:39:00,71.3,66.2,29.83,SSW,211,2.0,-999.0,84,0.00,,,0.00,71,WeatherHawk,2013-10-03 21:39:00,
2013-10-03 16:44:00,71.3,66.2,29.83,SSW,203,3.0,-999.0,84,0.00,,,0.00,68,WeatherHawk,2013-10-03 21:44:00,
2013-10-03 16:54:00,71.3,66.2,29.82,South,180,3.0,-999.0,84,0.00,,,0.00,58,WeatherHawk,2013-10-03 21:54:00,
2013-10-03 17:04:00,71.5,66.4,29.82,South,172,1.0,-999.0,84,0.00,,,0.00,72,WeatherHawk,2013-10-03 22:04:00,
2013-10-03 17:09:00,71.8,66.7,29.82,SW,228,0.0,-999.0,84,0.00,,,0.00,98,WeatherHawk,2013-10-03 22:09:00,
2013-10-03 17:14:00,72.1,66.6,29.81,SSE,151,1.0,-999.0,83,0.00,,,0.00,133,WeatherHawk,2013-10-03 22:14:00,
2013-10-03 17:24:00,71.8,66.3,29.82,South,185,2.0,-999.0,83,0.00,,,0.00,65,WeatherHawk,2013-10-03 22:24:00,
2013-10-03 17:34:00,71.2,66.5,29.82,SSW,213,0.0,-999.0,85,0.00,,,0.00,31,WeatherHawk,2013-10-03 22:34:00,
2013-10-03 17:39:00,71.1,66.4,29.83,SSW,201,3.0,-999.0,85,0.00,,,0.00,23,WeatherHawk,2013-10-03 22:39:00,
2013-10-03 17:44:00,70.9,66.8,29.83,South,188,0.0,-999.0,87,0.00,,,0.00,20,WeatherHawk,2013-10-03 22:44:00,
2013-10-03 17:54:00,70.7,67.0,29.83,South,181,1.0,-999.0,88,0.00,,,0.00,11,WeatherHawk,2013-10-03 22:54:00,
2013-10-03 17:59:00,70.4,67.0,29.82,South,187,0.0,-999.0,89,0.00,,,0.00,10,WeatherHawk,2013-10-03 22:59:00,
2013-10-03 18:09:00,69.6,66.9,29.83,SSE,167,0.0,-999.0,91,0.00,,,0.00,7,WeatherHawk,2013-10-03 23:09:00,
2013-10-03 18:14:00,69.5,67.1,29.84,SSE,167,0.0,-999.0,92,0.00,,,0.00,12,WeatherHawk,2013-10-03 23:14:00,
2013-10-03 18:19:00,70.0,68.1,29.82,SSE,167,0.0,-999.0,94,0.00,,,0.00,13,WeatherHawk,2013-10-03 23:19:00,
2013-10-03 18:24:00,69.6,68.1,29.83,SSE,167,0.0,-999.0,95,0.00,,,0.00,10,WeatherHawk,2013-10-03 23:24:00,
2013-10-03 18:29:00,69.0,68.1,29.83,SSE,167,0.0,-999.0,97,0.00,,,0.00,6,WeatherHawk,2013-10-03 23:29:00,
2013-10-03 18:39:00,69.4,69.4,29.82,SE,142,2.0,-999.0,100,0.00,,,0.00,1,WeatherHawk,2013-10-03 23:39:00,
2013-10-03 18:49:00,69.1,69.1,29.84,SE,142,0.0,-999.0,100,0.00,,,0.00,0,WeatherHawk,2013-10-03 23:49:00,
2013-10-03 18:54:00,69.5,69.5,29.84,SE,142,0.0,-999.0,100,0.00,,,0.00,0,WeatherHawk,2013-10-03 23:54:00,
2013-10-03 18:59:00,69.1,69.1,29.84,SE,142,0.0,-999.0,100,0.00,,,0.00,0,WeatherHawk,2013-10-03 23:59:00,
2013-10-03 19:04:00,69.4,69.4,29.84,SE,142,0.0,-999.0,100,0.00,,,0.00,0,WeatherHawk,2013-10-04 00:04:00,
2013-10-03 19:14:00,69.4,69.1,29.83,ESE,102,0.0,-999.0,99,0.00,,,0.00,0,WeatherHawk,2013-10-04 00:14:00,
2013-10-03 19:24:00,69.0,68.7,29.84,ENE,59,0.0,-999.0,99,0.00,,,0.00,0,WeatherHawk,2013-10-04 00:24:00,
2013-10-03 19:34:00,69.6,69.0,29.83,ESE,111,0.0,-999.0,98,0.00,,,0.00,0,WeatherHawk,2013-10-04 00:34:00,
2013-10-03 19:39:00,69.4,68.6,29.83,SSE,148,0.0,-999.0,97,0.00,,,0.00,0,WeatherHawk,2013-10-04 00:39:00,
2013-10-03 19:44:00,69.5,68.7,29.84,SSE,159,2.0,-999.0,97,0.00,,,0.00,0,WeatherHawk,2013-10-04 00:44:00,
2013-10-03 19:54:00,69.0,68.4,29.83,SE,146,0.0,-999.0,98,0.00,,,0.00,0,WeatherHawk,2013-10-04 00:54:00,
2013-10-03 20:04:00,68.4,67.8,29.84,South,185,0.0,-999.0,98,0.00,,,0.00,0,WeatherHawk,2013-10-04 01:04:00,
2013-10-03 20:09:00,68.3,68.0,29.83,South,178,1.0,-999.0,99,0.00,,,0.00,0,WeatherHawk,2013-10-04 01:09:00,
2013-10-03 20:19:00,67.9,67.9,29.83,SSE,155,0.0,-999.0,100,0.00,,,0.00,0,WeatherHawk,2013-10-04 01:19:00,
2013-10-03 20:24:00,67.9,67.9,29.84,SSE,155,0.0,-999.0,100,0.00,,,0.00,0,WeatherHawk,2013-10-04 01:24:00,
2013-10-03 20:29:00,67.8,67.8,29.83,SSE,155,0.0,-999.0,100,0.00,,,0.00,1,WeatherHawk,2013-10-04 01:29:00,
2013-10-03 20:34:00,67.7,67.7,29.84,SSE,155,0.0,-999.0,100,0.00,,,0.00,0,WeatherHawk,2013-10-04 01:34:00,
2013-10-03 20:44:00,67.3,67.3,29.84,SSE,158,0.0,-999.0,100,0.00,,,0.00,0,WeatherHawk,2013-10-04 01:44:00,
2013-10-03 20:49:00,66.9,66.9,29.83,South,179,0.0,-999.0,100,0.00,,,0.00,0,WeatherHawk,2013-10-04 01:49:00,
2013-10-03 20:54:00,66.8,66.8,29.84,South,179,0.0,-999.0,100,0.00,,,0.00,1,WeatherHawk,2013-10-04 01:54:00,
2013-10-03 21:04:00,66.6,66.6,29.84,SSW,192,0.0,-999.0,100,0.00,,,0.00,0,WeatherHawk,2013-10-04 02:04:00,
2013-10-03 21:09:00,67.4,67.4,29.85,NW,322,3.0,-999.0,100,0.00,,,0.00,0,WeatherHawk,2013-10-04 02:09:00,
2013-10-03 21:19:00,67.7,67.7,29.85,NNW,339,0.0,-999.0,100,0.00,,,0.00,0,WeatherHawk,2013-10-04 02:19:00,
2013-10-03 21:29:00,67.3,67.3,29.85,NW,310,0.0,-999.0,100,0.00,,,0.00,0,WeatherHawk,2013-10-04 02:29:00,
2013-10-03 21:39:00,67.9,67.9,29.86,NNW,335,2.0,-999.0,100,0.00,,,0.00,0,WeatherHawk,2013-10-04 02:39:00,
2013-10-03 21:44:00,67.8,67.8,29.86,NNE,19,1.0,-999.0,100,0.00,,,0.00,0,WeatherHawk,2013-10-04 02:44:00,
2013-10-03 21:49:00,67.8,67.8,29.86,North,10,1.0,-999.0,100,0.00,,,0.00,0,WeatherHawk,2013-10-04 02:49:00,
2013-10-03 21:54:00,67.5,67.5,29.86,NE,36,0.0,-999.0,100,0.00,,,0.00,1,WeatherHawk,2013-10-04 02:54:00,
2013-10-03 22:04:00,67.4,67.4,29.86,NE,42,0.0,-999.0,100,0.00,,,0.00,0,WeatherHawk,2013-10-04 03:04:00,
2013-10-03 22:09:00,66.7,66.7,29.85,ENE,62,0.0,-999.0,100,0.00,,,0.00,0,WeatherHawk,2013-10-04 03:09:00,
2013-10-03 22:14:00,67.0,67.0,29.86,NE,52,0.0,-999.0,100,0.00,,,0.00,0,WeatherHawk,2013-10-04 03:14:00,
2013-10-03 22:19:00,66.9,66.9,29.86,NE,42,0.0,-999.0,100,0.00,,,0.00,0,WeatherHawk,2013-10-04 03:19:00,
2013-10-03 22:24:00,66.7,66.7,29.85,NE,42,0.0,-999.0,100,0.00,,,0.00,0,WeatherHawk,2013-10-04 03:24:00,
2013-10-03 22:29:00,66.6,66.6,29.87,NE,41,0.0,-999.0,100,0.00,,,0.00,0,WeatherHawk,2013-10-04 03:29:00,
2013-10-03 22:34:00,66.4,66.4,29.86,NE,41,0.0,-999.0,100,0.00,,,0.00,0,WeatherHawk,2013-10-04 03:34:00,
2013-10-03 22:39:00,66.8,66.8,29.87,NE,42,0.0,-999.0,100,0.00,,,0.00,0,WeatherHawk,2013-10-04 03:39:00,
2013-10-03 22:44:00,66.9,66.9,29.87,NNE,28,0.0,-999.0,100,0.00,,,0.00,0,WeatherHawk,2013-10-04 03:44:00,
2013-10-03 22:49:00,66.4,66.4,29.87,NNE,26,0.0,-999.0,100,0.00,,,0.00,1,WeatherHawk,2013-10-04 03:49:00,
2013-10-03 22:54:00,66.5,66.5,29.87,NNE,26,0.0,-999.0,100,0.00,,,0.00,1,WeatherHawk,2013-10-04 03:54:00,
2013-10-03 22:59:00,66.5,66.5,29.87,NNE,26,0.0,-999.0,100,0.00,,,0.00,0,WeatherHawk,2013-10-04 03:59:00,
2013-10-03 23:35:00,66.7,66.7,29.88,NNE,32,0.0,-999.0,100,0.00,,,0.00,1,WeatherHawk,2013-10-04 04:35:00,
2013-10-03 23:39:00,66.8,66.8,29.88,NNE,32,0.0,-999.0,100,0.00,,,0.00,0,WeatherHawk,2013-10-04 04:39:00,
2013-10-03 23:45:00,66.6,66.6,29.88,NNE,32,0.0,-999.0,100,0.00,,,0.00,0,WeatherHawk,2013-10-04 04:45:00,
2013-10-03 23:55:00,66.5,66.5,29.87,NNE,32,0.0,-999.0,100,0.00,,,0.00,0,WeatherHawk,2013-10-04 04:55:00,